Scottsdale, AZ

9:15 AM MST on May 27, 2018 (GMT -0700)
Scottsdale

Weather History for KSDL - April, 2013

Change the Weather History Date:

Monday, April 29, 2013

  Actual Average Record
Temperature  
Mean Temperature 82 °F -  
Max Temperature 99 °F 83 °F 109 °F (2001)
Min Temperature 66 °F 60 °F 48 °F (1999)
Cooling Degree Days 18    
Growing Degree Days 32 (Base 50)    
Moisture  
Dew Point 23 °F    
Average Humidity 13    
Maximum Humidity 31    
Minimum Humidity 5    
Precipitation  
Precipitation 0.00 in - - ()
Sea Level Pressure  
Sea Level Pressure 29.66 in    
Wind  
Wind Speed 3 mph (SW)    
Max Wind Speed 12 mph    
Max Gust Speed 18 mph    
Visibility 10 miles    
Events      
Averages and records for this station are not official NWS values.
T = Trace of Precipitation, MM = Missing Value Source: NWS Daily Summary

Daily Weather History Graph

Daily Weather History Graph

Search for Another Location

Airport or City:

Astronomy

Apr. 29, 2013 Rise Set
Actual Time 5:40 AM MST 7:09 PM MST
Civil Twilight 5:14 AM MST 7:36 PM MST
Nautical Twilight 4:42 AM MST 8:07 PM MST
Astronomical Twilight 4:09 AM MST 8:40 PM MST
Moon 11:33 PM MST (4/29) 9:10 AM MST (4/29)
Length of Visible Light 14h 21m
Length of Day
13h 28m
Waning Gibbous, 79% of the Moon is Illuminated
Apr 29
Waning Gibbous
May 2
Last Quarter
May 9
New
May 17
First Quarter
May 24
Full

Hourly Weather History & Observations

Time (MST) Temp. Dew Point Humidity Pressure Visibility Wind Dir Wind Speed Gust Speed Precip Events Conditions
12:53 AM 75.9 °F 28.0 °F 17% 29.70 in 10.0 mi Calm Calm - N/A   Clear
1:53 AM 73.0 °F 27.0 °F 18% 29.69 in 10.0 mi Variable 3.5 mph - N/A   Clear
2:53 AM 70.0 °F 28.0 °F 21% 29.69 in 10.0 mi Calm Calm - N/A   Clear
3:53 AM 69.1 °F 30.9 °F 24% 29.70 in 10.0 mi Calm Calm - N/A   Clear
4:53 AM 66.9 °F 28.0 °F 23% 29.70 in 10.0 mi Calm Calm - N/A   Clear
5:53 AM 66.9 °F 28.9 °F 24% 29.72 in 10.0 mi Calm Calm - N/A   Clear
6:53 AM 69.1 °F 37.0 °F 31% 29.73 in 10.0 mi Calm Calm - N/A   Clear
7:53 AM 75.0 °F 28.0 °F 18% 29.73 in 10.0 mi Calm Calm - N/A   Clear
8:53 AM 80.1 °F 30.9 °F 17% 29.73 in 10.0 mi Variable 4.6 mph - N/A   Clear
9:53 AM 86.0 °F 18.0 °F 8% 29.73 in 10.0 mi SSE 8.1 mph - N/A   Clear
10:53 AM 88.0 °F 21.0 °F 9% 29.73 in 10.0 mi SSE 8.1 mph - N/A   Clear
11:53 AM 90.0 °F 21.0 °F 8% 29.71 in 10.0 mi SSE 4.6 mph - N/A   Clear
12:53 PM 93.0 °F 19.9 °F 7% 29.68 in 10.0 mi SSW 3.5 mph - N/A   Clear
1:53 PM 96.1 °F 19.9 °F 6% 29.66 in 10.0 mi Variable 4.6 mph - N/A   Clear
2:53 PM 98.1 °F 18.0 °F 6% 29.63 in 10.0 mi SW 8.1 mph - N/A   Clear
3:53 PM 98.1 °F 18.0 °F 6% 29.60 in 10.0 mi SW 8.1 mph - N/A   Clear
4:53 PM 99.0 °F 19.0 °F 6% 29.58 in 10.0 mi WSW 11.5 mph - N/A   Clear
5:53 PM 97.0 °F 16.0 °F 5% 29.57 in 10.0 mi SW 8.1 mph - N/A   Clear
6:53 PM 95.0 °F 17.1 °F 6% 29.57 in 10.0 mi SW 6.9 mph - N/A   Clear
7:53 PM 91.9 °F 19.0 °F 7% 29.56 in 10.0 mi SW 3.5 mph - N/A   Clear
8:53 PM 91.0 °F 19.9 °F 7% 29.58 in 10.0 mi WSW 9.2 mph 18.4 mph N/A   Clear
9:53 PM 90.0 °F 18.0 °F 7% 29.59 in 10.0 mi WSW 9.2 mph - N/A   Clear
10:53 PM 88.0 °F 18.0 °F 8% 29.60 in 10.0 mi WSW 5.8 mph - N/A   Clear
11:53 PM 81.0 °F 23.0 °F 12% 29.61 in 10.0 mi North 3.5 mph - N/A   Clear